STARLINK-32372

Last updated on Thu Nov 21 2024 00:02:06 GMT+0000 (Coordinated Universal Time)

1 61960U 24210B 24325.66668981 -.00863590 23082-3 -25333-2 0 9996 2 61960 43.0036 353.5345 0001521 275.9147 67.0364 15.91783071 2035
UTC large
Height (km)
Speed (km/s)
/
Latitude / Longitude
Inclination (degrees)
Orbital Period (minutes)
Azimuth
Elevation
Range (km)
Doppler Factor

Next 0 passes for location: London (51.5072 / 0.1276)

Sorry there are no passes over London.